Find Starlink 3611

NORAD ID: 51779 Int'l Des: 2022-017 Owner: SPXS Country: US Constellation: starlink operational
LEOCIRCULAR

Live Position

Loading 3D Globe...

About Starlink 3611

Description loading...

Upcoming Passes

Passes for default location (London). Set your location on the main map for personalized predictions.

Altitude History

Loading altitude history...

Two-Line Element Set

1 51779U 22017M 26139.93292566 .00001741 00000-0 12744-3 0 9998
2 51779 53.2179 19.3444 0001407 92.4503 267.6651 15.08842096233327
Epoch: May 19, 2026 • Age: 9 hours

Current Status

Altitude 558.6 km
Velocity 7.58 km/s
Sub-Earth Point -51.53°S, 43.52°W
Launch Date Feb 25, 2022
Age 4.2 years
Type internet

Technical Details

Classification Payload
Mass 297.00 kg
Dry Mass 275.00 kg
Total Mass 297.00 kg
Length 0.20 m
Diameter 2.80 m
Span 9.00 m
Shape Box + pan
Manufacturer SPXS
Bus Type Starlink
Phase Status In Orbit
Owner/State SPXS/US

Most Searched